| time (UTC) | temp C | wind direction | speed KPH | gust KPH | rain 1hr cm | rain 24hr cm | rain mn cm | humidity % | barometer mb |
| 20260831045250 | 14 | 304 | 4.8 | 12.9 | 0.00 | 0.64 | 0.00 | 93 | 1009.2 |
| 20260831044750 | 14 | 302 | 3.2 | 11.3 | 0.00 | 0.64 | 0.00 | 92 | 1009.3 |
| 20260831043252 | 14 | 295 | 6.4 | 19.3 | 0.00 | 0.64 | 0.00 | 91 | 1009.1 |
| 20260831042750 | 15 | 303 | 16.1 | 25.7 | 0.00 | 0.64 | 0.00 | 91 | 1009.0 |
| 20260831042251 | 15 | 309 | 9.7 | 20.9 | 0.00 | 0.64 | 0.00 | 91 | 1009.0 |
| 20260831041750 | 15 | 297 | 6.4 | 14.5 | 0.00 | 0.64 | 0.00 | 92 | 1008.9 |
| 20260831041252 | 15 | 270 | 3.2 | 9.7 | 0.00 | 0.64 | 0.00 | 92 | 1008.8 |
| 20260831040251 | 15 | 282 | 4.8 | 9.7 | 0.00 | 0.66 | 0.00 | 92 | 1008.6 |
| 20260831035751 | 15 | 288 | 3.2 | 9.7 | 0.00 | 0.66 | 0.00 | 92 | 1008.5 |
| 20260831035251 | 15 | 289 | 4.8 | 14.5 | 0.00 | 0.66 | 0.00 | 92 | 1008.5 |
| 20260831034751 | 15 | 298 | 3.2 | 11.3 | 0.00 | 0.66 | 0.00 | 92 | 1008.4 |
| 20260831034250 | 14 | 283 | 3.2 | 9.7 | 0.00 | 0.66 | 0.00 | 92 | 1008.3 |
| 20260831033752 | 14 | 311 | 1.6 | 8.0 | 0.00 | 0.66 | 0.00 | 93 | 1008.2 |
| 20260831033252 | 14 | 279 | 3.2 | 8.0 | 0.00 | 0.66 | 0.00 | 93 | 1008.1 |
| 20260831032751 | 14 | 271 | 0.0 | 4.8 | 0.00 | 0.66 | 0.00 | 93 | 1008.0 |
| 20260831032251 | 14 | 301 | 0.0 | 1.6 | 0.00 | 0.66 | 0.00 | 93 | 1008.0 |
| 20260831031751 | 14 | 273 | 1.6 | 4.8 | 0.00 | 0.66 | 0.00 | 93 | 1007.8 |
| 20260831031251 | 14 | 286 | 0.0 | 1.6 | 0.00 | 0.66 | 0.00 | 93 | 1007.8 |
| 20260831030751 | 14 | 265 | 0.0 | 3.2 | 0.00 | 0.66 | 0.00 | 93 | 1007.7 |
| 20260831030251 | 14 | 292 | 1.6 | 4.8 | 0.00 | 0.66 | 0.00 | 93 | 1007.6 |
| 20260831025751 | 14 | 292 | 1.6 | 8.0 | 0.00 | 0.66 | 0.00 | 93 | 1007.5 |
| 20260831025250 | 14 | 284 | 3.2 | 9.7 | 0.00 | 0.71 | 0.00 | 93 | 1007.4 |
| 20260831024751 | 14 | 298 | 3.2 | 8.0 | 0.00 | 0.71 | 0.00 | 93 | 1007.4 |
| 20260831024252 | 14 | 277 | 3.2 | 9.7 | 0.00 | 0.71 | 0.00 | 93 | 1007.3 |
| 20260831023752 | 14 | 293 | 3.2 | 9.7 | 0.00 | 0.71 | 0.00 | 92 | 1007.2 |
| 20260831023252 | 14 | 272 | 3.2 | 8.0 | 0.00 | 0.71 | 0.00 | 93 | 1007.1 |
| 20260831022752 | 14 | 280 | 4.8 | 9.7 | 0.00 | 0.71 | 0.00 | 93 | 1007.0 |
| 20260831022252 | 14 | 294 | 4.8 | 9.7 | 0.00 | 0.71 | 0.00 | 93 | 1007.0 |
| 20260831021752 | 14 | 273 | 3.2 | 8.0 | 0.00 | 0.71 | 0.00 | 93 | 1006.8 |
| 20260831021253 | 14 | 282 | 3.2 | 9.7 | 0.00 | 0.71 | 0.00 | 93 | 1006.8 |
| 20260831020752 | 14 | 283 | 3.2 | 8.0 | 0.00 | 0.71 | 0.00 | 93 | 1006.6 |
| 20260831020251 | 14 | 283 | 3.2 | 8.0 | 0.00 | 0.71 | 0.00 | 92 | 1006.6 |
| 20260831015752 | 14 | 290 | 3.2 | 8.0 | 0.00 | 0.71 | 0.00 | 92 | 1006.5 |
| 20260831015252 | 14 | 289 | 4.8 | 9.7 | 0.00 | 0.71 | 0.00 | 92 | 1006.4 |
| 20260831014752 | 14 | 286 | 3.2 | 9.7 | 0.00 | 0.71 | 0.00 | 92 | 1006.4 |
| 20260831014251 | 14 | 285 | 3.2 | 9.7 | 0.00 | 0.71 | 0.00 | 92 | 1006.3 |
| 20260831013252 | 14 | 284 | 4.8 | 11.3 | 0.00 | 0.71 | 0.00 | 92 | 1006.2 |
| 20260831012753 | 14 | 267 | 3.2 | 9.7 | 0.00 | 0.71 | 0.00 | 91 | 1006.1 |
| 20260831011752 | 14 | 277 | 6.4 | 12.9 | 0.00 | 0.71 | 0.00 | 92 | 1005.9 |
| 20260831011252 | 14 | 284 | 6.4 | 14.5 | 0.00 | 0.71 | 0.00 | 92 | 1005.9 |
| 20260831010753 | 14 | 291 | 6.4 | 11.3 | 0.00 | 0.71 | 0.00 | 92 | 1005.8 |
| 20260831010252 | 14 | 287 | 3.2 | 12.9 | 0.00 | 0.71 | 0.00 | 92 | 1005.7 |
| 20260831005752 | 14 | 295 | 3.2 | 9.7 | 0.00 | 0.71 | 0.00 | 92 | 1005.7 |
| 20260831005253 | 14 | 282 | 1.6 | 11.3 | 0.00 | 0.71 | 0.00 | 92 | 1005.6 |
| 20260831004752 | 14 | 291 | 4.8 | 14.5 | 0.00 | 0.71 | 0.00 | 92 | 1005.6 |
| 20260831004253 | 14 | 279 | 3.2 | 12.9 | 0.00 | 0.71 | 0.00 | 92 | 1005.6 |
| 20260831003752 | 14 | 284 | 4.8 | 9.7 | 0.00 | 0.71 | 0.00 | 92 | 1005.5 |
| 20260831002253 | 14 | 288 | 3.2 | 20.9 | 0.00 | 0.71 | 0.00 | 92 | 1005.4 |
| 20260831001752 | 14 | 292 | 4.8 | 9.7 | 0.00 | 0.71 | 0.00 | 92 | 1005.4 |
| 20260831001253 | 14 | 276 | 4.8 | 11.3 | 0.00 | 0.71 | 0.00 | 92 | 1005.2 |
| 20260831000752 | 14 | 282 | 4.8 | 11.3 | 0.00 | 0.71 | 0.00 | 92 | 1005.1 |
| 20260831000252 | 14 | 291 | 4.8 | 9.7 | 0.00 | 0.71 | 0.00 | 92 | 1005.1 |
| 20260830235752 | 14 | 287 | 6.4 | 11.3 | 0.00 | 0.71 | 0.00 | 92 | 1005.0 |
| 20260830235254 | 14 | 287 | 4.8 | 11.3 | 0.00 | 0.71 | 0.00 | 92 | 1004.8 |
| 20260830234752 | 14 | 287 | 4.8 | 9.7 | 0.00 | 0.71 | 0.00 | 92 | 1004.8 |
| 20260830234253 | 14 | 298 | 4.8 | 11.3 | 0.00 | 0.71 | 0.00 | 91 | 1004.7 |
| 20260830233752 | 15 | 288 | 6.4 | 16.1 | 0.00 | 0.71 | 0.00 | 91 | 1004.6 |
| 20260830232753 | 15 | 278 | 4.8 | 19.3 | 0.00 | 0.71 | 0.00 | 92 | 1004.4 |
| 20260830232252 | 15 | 286 | 8.0 | 14.5 | 0.00 | 0.71 | 0.00 | 92 | 1004.5 |
| 20260830231752 | 15 | 285 | 4.8 | 9.7 | 0.00 | 0.71 | 0.00 | 92 | 1004.4 |
| 20260830231254 | 15 | 304 | 4.8 | 11.3 | 0.00 | 0.71 | 0.00 | 92 | 1004.4 |
| 20260830230814 | 14 | 289 | 8.0 | 14.5 | 0.00 | 0.71 | 0.00 | 92 | 1004.3 |
| 20260830230254 | 14 | 284 | 4.8 | 9.7 | 0.00 | 0.71 | 0.00 | 92 | 1004.2 |
| 20260830225753 | 14 | 278 | 4.8 | 14.5 | 0.00 | 0.71 | 0.71 | 92 | 1004.1 |
| 20260830225253 | 14 | 289 | 3.2 | 11.3 | 0.00 | 0.71 | 0.71 | 92 | 1004.2 |
| 20260830224753 | 14 | 278 | 3.2 | 11.3 | 0.00 | 0.71 | 0.71 | 93 | 1004.1 |
| 20260830224253 | 14 | 277 | 4.8 | 9.7 | 0.00 | 0.71 | 0.71 | 93 | 1004.0 |
| 20260830223754 | 14 | 283 | 3.2 | 9.7 | 0.00 | 0.71 | 0.71 | 94 | 1004.0 |
| 20260830222753 | 13 | 284 | 1.6 | 4.8 | 0.00 | 0.71 | 0.71 | 93 | 1003.8 |
| 20260830222253 | 13 | 273 | 1.6 | 3.2 | 0.00 | 0.71 | 0.71 | 93 | 1003.8 |
| 20260830221753 | 13 | 290 | 1.6 | 3.2 | 0.00 | 0.71 | 0.71 | 93 | 1003.7 |
| 20260830220754 | 13 | 267 | 1.6 | 3.2 | 0.00 | 0.71 | 0.71 | 93 | 1003.5 |
| 20260830220253 | 13 | 279 | 1.6 | 8.0 | 0.00 | 0.71 | 0.71 | 94 | 1003.5 |
| 20260830215753 | 13 | 284 | 3.2 | 9.7 | 0.00 | 0.71 | 0.71 | 94 | 1003.5 |
| 20260830215255 | 13 | 276 | 3.2 | 8.0 | 0.00 | 0.71 | 0.71 | 94 | 1003.4 |
| 20260830214753 | 13 | 273 | 1.6 | 4.8 | 0.00 | 0.71 | 0.71 | 94 | 1003.3 |
| 20260830214254 | 13 | 275 | 1.6 | 3.2 | 0.03 | 0.71 | 0.71 | 94 | 1003.2 |
| 20260830213253 | 13 | 282 | 1.6 | 4.8 | 0.03 | 0.71 | 0.71 | 94 | 1003.2 |
| 20260830212755 | 13 | 281 | 1.6 | 4.8 | 0.03 | 0.71 | 0.71 | 94 | 1003.1 |
| 20260830212254 | 13 | 285 | 1.6 | 4.8 | 0.03 | 0.71 | 0.71 | 94 | 1003.0 |
| 20260830211254 | 13 | 279 | 0.0 | 4.8 | 0.03 | 0.71 | 0.71 | 94 | 1002.9 |
| 20260830210755 | 13 | 279 | 1.6 | 3.2 | 0.03 | 0.71 | 0.71 | 94 | 1002.8 |
| 20260830210254 | 13 | 271 | 1.6 | 8.0 | 0.03 | 0.71 | 0.71 | 94 | 1002.7 |
| 20260830205754 | 13 | 286 | 1.6 | 8.0 | 0.03 | 0.71 | 0.71 | 94 | 1002.6 |
| 20260830205254 | 13 | 290 | 1.6 | 4.8 | 0.03 | 0.71 | 0.71 | 94 | 1002.5 |
| 20260830204755 | 13 | 285 | 1.6 | 4.8 | 0.03 | 0.71 | 0.71 | 93 | 1002.4 |
| 20260830204254 | 13 | 280 | 1.6 | 4.8 | 0.00 | 0.71 | 0.71 | 93 | 1002.4 |
| 20260830203753 | 13 | 276 | 1.6 | 3.2 | 0.00 | 0.71 | 0.71 | 93 | 1002.4 |
| 20260830202254 | 13 | 292 | 1.6 | 8.0 | 0.03 | 0.71 | 0.71 | 93 | 1002.2 |
| 20260830201754 | 13 | 311 | 3.2 | 9.7 | 0.03 | 0.71 | 0.71 | 92 | 1002.2 |
| 20260830201256 | 13 | 287 | 1.6 | 9.7 | 0.03 | 0.71 | 0.71 | 92 | 1002.2 |
| 20260830200754 | 13 | 306 | 3.2 | 9.7 | 0.03 | 0.71 | 0.71 | 92 | 1002.1 |
| 20260830200255 | 13 | 308 | 3.2 | 8.0 | 0.03 | 0.71 | 0.71 | 92 | 1002.1 |
| 20260830195254 | 13 | 297 | 0.0 | 3.2 | 0.03 | 0.71 | 0.71 | 93 | 1001.9 |
| 20260830194754 | 13 | 299 | 1.6 | 3.2 | 0.03 | 0.71 | 0.71 | 92 | 1001.8 |
| 20260830194254 | 13 | 298 | 1.6 | 8.0 | 0.03 | 0.71 | 0.71 | 92 | 1001.8 |
| 20260830193754 | 13 | 306 | 3.2 | 8.0 | 0.03 | 0.71 | 0.71 | 92 | 1001.7 |
| 20260830193254 | 13 | 283 | 1.6 | 9.7 | 0.03 | 0.71 | 0.71 | 92 | 1001.7 |
| 20260830192755 | 13 | 292 | 4.8 | 11.3 | 0.03 | 0.71 | 0.71 | 91 | 1001.7 |
| 20260830192255 | 13 | 288 | 4.8 | 9.7 | 0.03 | 0.69 | 0.69 | 91 | 1001.6 |
| 20260830191754 | 13 | 290 | 6.4 | 11.3 | 0.03 | 0.69 | 0.69 | 90 | 1001.6 |
| 20260830190755 | 14 | 287 | 6.4 | 14.5 | 0.03 | 0.69 | 0.69 | 90 | 1001.5 |
| 20260830190254 | 15 | 280 | 8.0 | 19.3 | 0.03 | 0.69 | 0.69 | 91 | 1001.4 |
| 20260830185756 | 15 | 289 | 1.6 | 3.2 | 0.03 | 0.69 | 0.69 | 93 | 1001.3 |
| 20260830185256 | 15 | 168 | 0.0 | 0.0 | 0.03 | 0.69 | 0.69 | 93 | 1001.2 |
| 20260830184755 | 15 | 149 | 0.0 | 0.0 | 0.03 | 0.69 | 0.69 | 93 | 1001.2 |
| 20260830184254 | 15 | 150 | 0.0 | 0.0 | 0.03 | 0.69 | 0.69 | 93 | 1001.1 |
| 20260830183755 | 15 | 149 | 0.0 | 0.0 | 0.03 | 0.69 | 0.69 | 93 | 1001.1 |
| 20260830183255 | 15 | 150 | 0.0 | 0.0 | 0.03 | 0.69 | 0.69 | 93 | 1001.1 |
| 20260830182255 | 15 | 139 | 0.0 | 1.6 | 0.00 | 0.66 | 0.66 | 92 | 1001.0 |
| 20260830181755 | 15 | 136 | 0.0 | 0.0 | 0.03 | 0.66 | 0.66 | 92 | 1001.0 |
| 20260830181255 | 15 | 150 | 0.0 | 0.0 | 0.03 | 0.66 | 0.66 | 92 | 1001.0 |
| 20260830180756 | 15 | 150 | 0.0 | 0.0 | 0.03 | 0.66 | 0.66 | 92 | 1001.0 |
| 20260830180255 | 15 | 148 | 0.0 | 0.0 | 0.03 | 0.66 | 0.66 | 92 | 1001.0 |
| 20260830175755 | 15 | 152 | 0.0 | 1.6 | 0.03 | 0.66 | 0.66 | 92 | 1000.9 |
| 20260830175255 | 15 | 148 | 0.0 | 1.6 | 0.05 | 0.66 | 0.66 | 92 | 1000.9 |
| 20260830174255 | 15 | 287 | 0.0 | 0.0 | 0.05 | 0.66 | 0.66 | 91 | 1000.9 |
| 20260830173257 | 15 | 287 | 0.0 | 1.6 | 0.05 | 0.69 | 0.66 | 91 | 1000.9 |
| 20260830172755 | 15 | 283 | 0.0 | 1.6 | 0.05 | 0.69 | 0.66 | 92 | 1000.9 |
| 20260830172257 | 15 | 280 | 0.0 | 0.0 | 0.05 | 0.69 | 0.66 | 92 | 1000.8 |
| 20260830171257 | 15 | 280 | 0.0 | 1.6 | 0.03 | 0.66 | 0.64 | 91 | 1000.9 |
| 20260830165257 | 15 | 291 | 1.6 | 3.2 | 0.03 | 0.64 | 0.61 | 91 | 1000.9 |
| 20260830164755 | 15 | 287 | 1.6 | 4.8 | 0.05 | 0.64 | 0.61 | 91 | 1000.9 |
| 20260830164257 | 15 | 285 | 1.6 | 3.2 | 0.05 | 0.64 | 0.61 | 91 | 1000.8 |
| 20260830163257 | 15 | 310 | 0.0 | 4.8 | 0.05 | 0.64 | 0.61 | 92 | 1000.8 |
| 20260830162756 | 15 | 285 | 0.0 | 1.6 | 0.05 | 0.64 | 0.61 | 92 | 1000.8 |
| 20260830162256 | 15 | 294 | 1.6 | 3.2 | 0.08 | 0.64 | 0.61 | 91 | 1000.9 |
| 20260830161756 | 15 | 267 | 0.0 | 3.2 | 0.08 | 0.64 | 0.61 | 92 | 1000.9 |
| 20260830161257 | 15 | 310 | 0.0 | 1.6 | 0.08 | 0.64 | 0.61 | 92 | 1000.9 |
| 20260830160756 | 15 | 284 | 0.0 | 1.6 | 0.08 | 0.64 | 0.61 | 91 | 1000.9 |
| 20260830160256 | 15 | 305 | 0.0 | 3.2 | 0.08 | 0.64 | 0.61 | 91 | 1000.9 |
| 20260830155757 | 15 | 299 | 0.0 | 4.8 | 0.05 | 0.61 | 0.61 | 90 | 1000.8 |
| 20260830155257 | 15 | 304 | 0.0 | 4.8 | 0.05 | 0.61 | 0.61 | 90 | 1000.8 |
| 20260830154757 | 15 | 247 | 1.6 | 3.2 | 0.05 | 0.61 | 0.58 | 89 | 1000.8 |
| 20260830154257 | 16 | 309 | 0.0 | 3.2 | 0.05 | 0.61 | 0.58 | 89 | 1000.8 |
| 20260830153758 | 16 | 275 | 3.2 | 8.0 | 0.03 | 0.58 | 0.56 | 88 | 1000.8 |
| 20260830153256 | 16 | 300 | 1.6 | 8.0 | 0.03 | 0.58 | 0.56 | 88 | 1000.8 |
| 20260830152756 | 16 | 306 | 1.6 | 8.0 | 0.03 | 0.58 | 0.56 | 86 | 1000.8 |
| 20260830152257 | 16 | 324 | 6.4 | 12.9 | 0.00 | 0.56 | 0.53 | 84 | 1000.7 |
| 20260830151757 | 16 | 285 | 6.4 | 16.1 | 0.00 | 0.56 | 0.53 | 83 | 1000.7 |
| 20260830151256 | 17 | 294 | 8.0 | 12.9 | 0.00 | 0.56 | 0.53 | 83 | 1000.7 |
| 20260830150758 | 17 | 295 | 4.8 | 12.9 | 0.00 | 0.58 | 0.53 | 82 | 1000.8 |
| 20260830150256 | 17 | 301 | 4.8 | 9.7 | 0.00 | 0.61 | 0.53 | 83 | 1000.7 |
| 20260830145757 | 17 | 343 | 4.8 | 12.9 | 0.00 | 0.69 | 0.53 | 82 | 1000.7 |
| 20260830145257 | 17 | 283 | 1.6 | 12.9 | 0.00 | 0.69 | 0.53 | 81 | 1000.7 |
| 20260830144758 | 18 | 326 | 3.2 | 11.3 | 0.00 | 0.69 | 0.53 | 81 | 1000.6 |
| 20260830144256 | 18 | 313 | 6.4 | 12.9 | 0.00 | 0.69 | 0.53 | 79 | 1000.6 |
| 20260830143757 | 18 | 299 | 3.2 | 12.9 | 0.00 | 0.69 | 0.53 | 78 | 1000.7 |
| 20260830143257 | 18 | 296 | 4.8 | 12.9 | 0.00 | 0.69 | 0.53 | 77 | 1000.7 |
| 20260830142758 | 18 | 305 | 4.8 | 16.1 | 0.00 | 0.69 | 0.53 | 77 | 1000.6 |
| 20260830142257 | 19 | 244 | 3.2 | 19.3 | 0.00 | 0.69 | 0.53 | 77 | 1000.6 |
| 20260830141759 | 19 | 327 | 4.8 | 12.9 | 0.00 | 0.69 | 0.53 | 76 | 1000.6 |
| 20260830141257 | 19 | 318 | 8.0 | 14.5 | 0.00 | 0.69 | 0.53 | 75 | 1000.7 |
| 20260830135757 | 20 | 291 | 4.8 | 9.7 | 0.00 | 0.69 | 0.53 | 76 | 1000.6 |
| 20260830135258 | 20 | 339 | 6.4 | 19.3 | 0.00 | 0.69 | 0.53 | 76 | 1000.6 |
| 20260830134759 | 19 | 201 | 6.4 | 19.3 | 0.00 | 0.71 | 0.53 | 78 | 1000.6 |
| 20260830134257 | 20 | 320 | 8.0 | 19.3 | 0.00 | 0.71 | 0.53 | 75 | 1000.7 |
| 20260830133757 | 20 | 305 | 8.0 | 16.1 | 0.00 | 0.71 | 0.53 | 74 | 1000.7 |
| 20260830133257 | 20 | 328 | 6.4 | 11.3 | 0.00 | 0.71 | 0.53 | 74 | 1000.7 |
| 20260830132757 | 20 | 290 | 4.8 | 12.9 | 0.00 | 0.71 | 0.53 | 74 | 1000.7 |
| 20260830132258 | 20 | 335 | 8.0 | 16.1 | 0.00 | 0.71 | 0.53 | 74 | 1000.7 |
| 20260830131757 | 20 | 213 | 6.4 | 14.5 | 0.00 | 0.71 | 0.53 | 72 | 1000.8 |
| 20260830130757 | 20 | 277 | 4.8 | 16.1 | 0.00 | 0.71 | 0.53 | 74 | 1000.7 |
| 20260830130257 | 20 | 325 | 4.8 | 20.9 | 0.00 | 0.71 | 0.53 | 75 | 1000.7 |
| 20260830125757 | 20 | 168 | 4.8 | 19.3 | 0.00 | 0.71 | 0.53 | 76 | 1000.8 |
| 20260830124757 | 20 | 229 | 8.0 | 14.5 | 0.00 | 0.71 | 0.53 | 77 | 1001.0 |
| 20260830124259 | 20 | 59 | 4.8 | 14.5 | 0.00 | 0.71 | 0.53 | 79 | 1001.0 |
| 20260830123758 | 20 | 298 | 6.4 | 16.1 | 0.00 | 0.71 | 0.53 | 78 | 1001.0 |
| 20260830123259 | 20 | 8 | 4.8 | 9.7 | 0.00 | 0.71 | 0.53 | 80 | 1001.0 |
| 20260830122757 | 19 | 304 | 8.0 | 22.5 | 0.00 | 0.71 | 0.53 | 80 | 1001.0 |
| 20260830122258 | 19 | 284 | 9.7 | 20.9 | 0.00 | 0.71 | 0.53 | 78 | 1001.1 |
| 20260830121758 | 19 | 297 | 8.0 | 19.3 | 0.00 | 0.71 | 0.53 | 77 | 1001.0 |
| 20260830121258 | 19 | 299 | 6.4 | 19.3 | 0.00 | 0.71 | 0.53 | 78 | 1001.0 |
| 20260830120759 | 20 | 314 | 8.0 | 20.9 | 0.00 | 0.71 | 0.53 | 78 | 1001.0 |
| 20260830120259 | 19 | 274 | 4.8 | 11.3 | 0.00 | 0.71 | 0.53 | 81 | 1001.0 |
| 20260830115759 | 19 | 329 | 4.8 | 12.9 | 0.00 | 0.71 | 0.53 | 80 | 1001.0 |
| 20260830115259 | 18 | 210 | 4.8 | 12.9 | 0.00 | 0.71 | 0.53 | 83 | 1001.0 |
| 20260830114800 | 18 | 357 | 6.4 | 19.3 | 0.00 | 0.71 | 0.53 | 85 | 1001.0 |
| 20260830113258 | 18 | 185 | 4.8 | 16.1 | 0.00 | 0.71 | 0.53 | 86 | 1001.0 |
| 20260830112758 | 18 | 304 | 4.8 | 14.5 | 0.00 | 0.74 | 0.53 | 86 | 1001.0 |
| 20260830112300 | 18 | 200 | 6.4 | 16.1 | 0.00 | 0.74 | 0.53 | 86 | 1001.0 |
| 20260830111758 | 18 | 299 | 4.8 | 14.5 | 0.00 | 0.76 | 0.53 | 86 | 1001.1 |
| 20260830110759 | 18 | 308 | 4.8 | 19.3 | 0.03 | 0.79 | 0.53 | 88 | 1001.1 |
| 20260830110300 | 18 | 298 | 3.2 | 14.5 | 0.05 | 0.79 | 0.53 | 89 | 1001.2 |
| 20260830105759 | 18 | 173 | 3.2 | 14.5 | 0.05 | 0.79 | 0.53 | 90 | 1001.1 |
| 20260830104308 | 17 | 238 | 8.0 | 20.9 | 0.15 | 0.81 | 0.53 | 92 | 1001.2 |
| 20260830103801 | 17 | 231 | 8.0 | 16.1 | 0.15 | 0.84 | 0.53 | 95 | 1001.1 |
| 20260830101759 | 16 | 142 | 9.7 | 19.3 | 0.15 | 0.91 | 0.53 | 96 | 1001.3 |
| 20260830101301 | 16 | 146 | 11.3 | 19.3 | 0.18 | 0.94 | 0.53 | 96 | 1001.5 |
| 20260830100800 | 16 | 138 | 11.3 | 20.9 | 0.18 | 0.97 | 0.53 | 95 | 1001.6 |
| 20260830095759 | 16 | 172 | 9.7 | 19.3 | 0.15 | 0.99 | 0.48 | 96 | 1001.9 |
| 20260830095259 | 16 | 167 | 11.3 | 27.4 | 0.15 | 1.02 | 0.48 | 95 | 1002.0 |
| 20260830094759 | 16 | 148 | 16.1 | 24.1 | 0.05 | 0.99 | 0.41 | 95 | 1002.0 |
| 20260830094259 | 16 | 134 | 11.3 | 20.9 | 0.05 | 1.02 | 0.41 | 95 | 1002.0 |
| 20260830093759 | 16 | 147 | 11.3 | 22.5 | 0.05 | 1.09 | 0.41 | 96 | 1002.0 |
| 20260830093259 | 16 | 147 | 8.0 | 19.3 | 0.08 | 1.12 | 0.41 | 96 | 1002.1 |
| 20260830092801 | 16 | 157 | 6.4 | 11.3 | 0.05 | 1.17 | 0.38 | 96 | 1002.2 |
| 20260830092259 | 16 | 166 | 3.2 | 9.7 | 0.05 | 1.24 | 0.38 | 96 | 1002.1 |
| 20260830091759 | 15 | 160 | 4.8 | 9.7 | 0.05 | 1.30 | 0.38 | 96 | 1002.1 |
| 20260830091259 | 15 | 144 | 4.8 | 9.7 | 0.05 | 1.32 | 0.36 | 96 | 1002.2 |
| 20260830090300 | 15 | 180 | 3.2 | 9.7 | 0.03 | 1.37 | 0.33 | 96 | 1002.5 |
| 20260830085759 | 15 | 164 | 3.2 | 9.7 | 0.05 | 1.37 | 0.33 | 96 | 1002.6 |
| 20260830085301 | 15 | 170 | 1.6 | 11.3 | 0.05 | 1.42 | 0.33 | 96 | 1002.5 |
| 20260830084800 | 15 | 151 | 4.8 | 12.9 | 0.05 | 1.45 | 0.33 | 96 | 1002.6 |
| 20260830084259 | 15 | 177 | 8.0 | 12.9 | 0.08 | 1.47 | 0.33 | 96 | 1002.5 |
| 20260830083800 | 15 | 164 | 9.7 | 14.5 | 0.10 | 1.55 | 0.33 | 97 | 1002.4 |
| 20260830082800 | 15 | 164 | 6.4 | 16.1 | 0.10 | 1.60 | 0.33 | 97 | 1002.4 |
| 20260830082259 | 15 | 185 | 3.2 | 14.5 | 0.10 | 1.63 | 0.33 | 97 | 1002.5 |
| 20260830081800 | 15 | 189 | 6.4 | 19.3 | 0.10 | 1.65 | 0.33 | 97 | 1002.9 |
| 20260830081259 | 15 | 287 | 4.8 | 22.5 | 0.10 | 1.68 | 0.33 | 97 | 1002.8 |
| 20260830080800 | 15 | 205 | 6.4 | 16.1 | 0.10 | 1.70 | 0.33 | 97 | 1002.7 |
| 20260830075800 | 15 | 307 | 1.6 | 8.0 | 0.08 | 1.75 | 0.30 | 98 | 1002.3 |
| 20260830075300 | 15 | 185 | 8.0 | 20.9 | 0.10 | 1.80 | 0.30 | 98 | 1001.8 |
| 20260830074301 | 15 | 132 | 8.0 | 9.7 | 0.05 | 1.83 | 0.25 | 98 | 1002.4 |
| 20260830073800 | 15 | 136 | 4.8 | 9.7 | 0.05 | 1.83 | 0.23 | 98 | 1002.6 |
| 20260830073300 | 15 | 157 | 4.8 | 9.7 | 0.05 | 1.83 | 0.23 | 99 | 1002.9 |
| 20260830072800 | 15 | 111 | 1.6 | 3.2 | 0.03 | 1.83 | 0.23 | 98 | 1003.1 |
| 20260830072301 | 15 | 97 | 0.0 | 0.0 | 0.03 | 1.88 | 0.23 | 98 | 1003.3 |
| 20260830071801 | 15 | 97 | 0.0 | 0.0 | 0.03 | 1.91 | 0.23 | 98 | 1003.3 |
| 20260830071300 | 15 | 97 | 0.0 | 0.0 | 0.03 | 1.93 | 0.23 | 98 | 1003.4 |
| 20260830070801 | 15 | 97 | 0.0 | 1.6 | 0.03 | 1.93 | 0.23 | 98 | 1003.4 |
| 20260830064801 | 15 | 97 | 0.0 | 0.0 | 0.03 | 2.11 | 0.20 | 98 | 1003.4 |
| 20260830064302 | 14 | 97 | 0.0 | 0.0 | 0.05 | 2.18 | 0.20 | 98 | 1003.4 |
| 20260830063800 | 14 | 97 | 0.0 | 0.0 | 0.05 | 2.21 | 0.20 | 98 | 1003.4 |
| 20260830063302 | 14 | 97 | 0.0 | 0.0 | 0.05 | 2.31 | 0.20 | 98 | 1003.4 |
| 20260830062800 | 14 | 97 | 0.0 | 1.6 | 0.05 | 2.36 | 0.20 | 98 | 1003.3 |
| 20260830062305 | 14 | 82 | 0.0 | 1.6 | 0.05 | 2.41 | 0.20 | 98 | 1003.3 |
| 20260830061302 | 14 | 90 | 0.0 | 0.0 | 0.05 | 2.49 | 0.20 | 98 | 1003.6 |
| 20260830055802 | 14 | 107 | 0.0 | 0.0 | 0.13 | 2.49 | 0.20 | 98 | 1003.4 |
| 20260830055300 | 14 | 91 | 0.0 | 1.6 | 0.10 | 2.49 | 0.18 | 98 | 1003.5 |
| 20260830054801 | 13 | 104 | 0.0 | 1.6 | 0.10 | 2.49 | 0.18 | 98 | 1003.5 |
| 20260830054303 | 14 | 107 | 0.0 | 0.0 | 0.08 | 2.49 | 0.15 | 98 | 1003.5 |
| 20260830053301 | 14 | 107 | 0.0 | 1.6 | 0.08 | 2.49 | 0.15 | 98 | 1003.6 |
| 20260830052801 | 14 | 93 | 0.0 | 1.6 | 0.08 | 2.49 | 0.15 | 98 | 1003.6 |
| 20260830052301 | 14 | 103 | 0.0 | 1.6 | 0.08 | 2.49 | 0.15 | 98 | 1003.6 |
| 20260830051801 | 14 | 98 | 1.6 | 3.2 | 0.08 | 2.51 | 0.15 | 98 | 1003.6 |
| 20260830051301 | 13 | 139 | 0.0 | 1.6 | 0.05 | 2.49 | 0.15 | 98 | 1003.6 |
| 20260830050801 | 13 | 96 | 0.0 | 0.0 | 0.05 | 2.49 | 0.13 | 98 | 1003.7 |
| 20260830050303 | 13 | 96 | 0.0 | 0.0 | 0.05 | 2.49 | 0.10 | 98 | 1003.7 |